{"data":{"norad_id":62636,"intl_designator":"2025-009AD","name":"FLOCK 4G-20","alt_names":[],"object_type":"PAYLOAD","status":"INACTIVE","operator":null,"country":"US","launch_date":"2025-01-14","launch_site_code":"AFWTR","launch_vehicle":null,"mission":null,"orbit_class":"UNKNOWN","rcs_meters":null,"size_class":null,"mass_kg":null,"dimensions":null,"purposes":["earth_obs"],"wikipedia_slug":null,"has_3d_model":false,"image_url":null,"decayed_at":null,"tle_current":{"epoch":"2026-07-12T17:50:20.885856Z","epoch_age_seconds":6041737,"freshness":"OLD","line1":"1 62636U 25009AD  26193.74329729  .00131012  00000+0  15966-2 0  9999","line2":"2 62636  97.3859 279.0666 0006246 213.2741 146.8124 15.60039427 83093","mean_motion":15.60039427,"eccentricity":0.0006246,"inclination_deg":97.3859,"raan_deg":279.0666,"arg_perigee_deg":213.2741,"mean_anomaly_deg":146.8124,"bstar":0.0015966,"rev_number":8309,"period_min":92.305359408073,"perigee_km":383.3172415351,"apogee_km":391.76892909768,"semimajor_km":6765.6800853164,"source":"CELESTRAK","updated_at":"2026-07-13T09:00:38.335246Z"}}}